Flag for Germany Weather past 2 weeks in Kempten, Bavaria, Germany

Now
74 °F

Passing clouds.


Feels Like: 74 °F
Forecast: 67 / 83 °F
Wind: 2 mph from Southeast

Location: Kempten

Current Time: Jul 5, 2015 at 11:12:54 PM

Latest Report: Jul 5, 2015 at 10:00 PM


Visibility: 11 mi

Pressure: 29.93 "Hg (27.70 "Hg at 673m altitude)

Humidity: 79%

Dew point: 67 °F

Location of KemptenLocation

Historic Weather in Kempten — Graph

°F

Kempten temperature yesterday

Maximum temperature yesterday: 90 °F (at 6:00 PM)
Minimum temperature yesterday: 60 °F (at 4:00 AM)
Average temperature yesterday: 76 °F

Past Weeks' High & Low Weather Summary

 TemperatureHumidityPressure
High93 °F (Jul 5, 4:00 PM)98% (Jun 28, 12:00 AM)30.27 "Hg (Jun 28, 12:00 AM)
Low45 °F (Jun 25, 4:00 AM)23% (Jul 5, 4:00 PM)29.73 "Hg (Jun 22, 10:00 PM)
Average66 °F66%30.09 "Hg
* Reported Jun 20 10:00 PM — Jul 5 10:00 PM, Kempten, Weather by CustomWeather, © 2015

Note: Actual official high and low records may vary slightly from our data, if they occured in-between our weather recording intervals... More about our weather records

Advertising

Kempten weather history for previous 24 hours

 ConditionsComfort  
Time TempWeatherWind HumidityBarometerVisibility
10:00 PM
Sun, Jul 5
74 °FPassing clouds.2 mph79%29.93 "Hg11 mi
9:00 PM80 °FSunny.2 mph65%29.89 "Hg15 mi
8:00 PM83 °FSunny.2 mph60%29.88 "Hg16 mi
7:00 PM92 °FSunny.1 mph36%29.86 "Hg19 mi
6:00 PM93 °FSunny.1 mph27%29.87 "Hg14 mi
4:00 PM93 °FSunny.2 mph23%29.90 "Hg13 mi
3:00 PM91 °FSunny.2 mph27%29.91 "Hg16 mi
2:00 PM90 °FPassing clouds.3 mph28%29.93 "Hg19 mi
1:00 PM90 °FSunny.2 mph26%29.94 "Hg17 mi
12:00 PM88 °FSunny.2 mph34%29.96 "Hg12 mi
10:00 AM80 °FSunny.1 mph51%30.02 "Hg12 mi
9:00 AM75 °FSunny.2 mph60%30.05 "Hg11 mi
8:00 AM72 °FSunny.2 mph62%30.07 "Hg10 mi
7:00 AM66 °FSunny.3 mph77%30.10 "Hg11 mi
4:00 AM65 °FClear.2 mph78%30.11 "Hg12 mi
3:00 AM65 °FClear.2 mph84%30.12 "Hg11 mi
2:00 AM66 °FClear.2 mph80%30.13 "Hg11 mi
1:00 AM68 °FClear.2 mph77%30.13 "Hg12 mi
12:00 AM68 °FClear.2 mph81%30.13 "Hg11 mi
Weather by CustomWeather, © 2015

See weather overviewHow to use our weather pages